Flag for Japan Weather past 2 weeks in Yokosuka, Japan

Now
48 °F

Passing clouds.


Feels Like: 44 °F
Forecast: 47 / 57 °F
Wind: 9 mph from Southeast

Location: Tokyo International Airport

Current Time: Mar 1, 2015 at 4:59:42 AM

Latest Report: Mar 1, 2015 at 4:30 AM


Visibility: N/A

Pressure: 30.18 "Hg

Humidity: 66%

Dew point: 37 °F

Location of YokosukaLocation

Historic Weather in Yokosuka — Graph

°F

Yokosuka temperature yesterday

Maximum temperature yesterday: 50 °F (at 12:00 PM)
Minimum temperature yesterday: 39 °F (at 4:30 AM)
Average temperature yesterday: 45 °F

Past Weeks' High & Low Weather Summary

 TemperatureHumidityPressure
High66 °F (Feb 23, 2:30 PM)100% (Feb 22, 11:47 PM)30.39 "Hg (Feb 22, 11:47 PM)
Low32 °F (Feb 14, 6:00 AM)16% (Feb 14, 2:00 PM)29.62 "Hg (Feb 27, 3:30 AM)
Average45 °F66%29.97 "Hg
* Reported Feb 14 3:00 AM — Mar 1 3:30 AM, Yokosuka, Weather by CustomWeather, © 2015

Note: Actual official high and low records may vary slightly from our data, if they occured in-between our weather recording intervals... More about our weather records

Advertising

Yokosuka weather history for previous 24 hours

 ConditionsComfort  
Time TempWeatherWind HumidityBarometerVisibility
3:30 AM
Sun, Mar 1
46 °FPassing clouds.10 mph66%30.21 "HgN/A
3:00 AM48 °FPassing clouds.13 mph66%30.21 "HgN/A
2:30 AM48 °FPassing clouds.14 mph66%30.24 "HgN/A
2:00 AM46 °FPassing clouds.15 mph66%30.24 "HgN/A
1:30 AM46 °FPassing clouds.15 mph66%30.27 "HgN/A
1:00 AM46 °FPassing clouds.15 mph66%30.27 "HgN/A
12:30 AM46 °FPassing clouds.15 mph66%30.27 "HgN/A
12:00 AM46 °FPassing clouds.13 mph71%30.27 "HgN/A
11:30 PM
Sat, Feb 28
46 °FPassing clouds.13 mph66%30.30 "HgN/A
11:00 PM46 °FPassing clouds.12 mph62%30.30 "HgN/A
10:30 PM46 °FClear.15 mph62%30.33 "Hg10 mi
10:00 PM46 °FClear.14 mph57%30.33 "Hg10 mi
9:30 PM45 °FClear.13 mph57%30.33 "Hg10 mi
9:00 PM45 °FClear.13 mph57%30.33 "Hg10 mi
8:30 PM45 °FClear.13 mph53%30.30 "Hg10 mi
8:00 PM45 °FClear.15 mph49%30.30 "Hg10 mi
7:30 PM46 °FClear.15 mph43%30.30 "Hg10 mi
7:00 PM46 °FClear.18 mph43%30.27 "Hg10 mi
6:30 PM46 °FClear.17 mph46%30.27 "Hg10 mi
6:00 PM48 °FClear.6 mph40%30.27 "Hg10 mi
5:30 PM48 °FSunny.7 mph43%30.24 "Hg10 mi
5:00 PM48 °FSunny.8 mph40%30.24 "Hg10 mi
4:30 PM50 °FSunny.8 mph35%30.24 "Hg10 mi
4:00 PM50 °FSunny.7 mph35%30.24 "Hg10 mi
3:30 PM48 °FSunny.9 mph29%30.21 "Hg10 mi
3:00 PM50 °FSunny.13 mph37%30.21 "Hg10 mi
2:30 PM50 °FSunny.12 mph35%30.21 "Hg10 mi
2:00 PM50 °FSunny.12 mph32%30.21 "Hg10 mi
1:30 PM50 °FSunny.10 mph32%30.24 "Hg10 mi
1:00 PM50 °FPassing clouds.5 mph28%30.21 "HgN/A
12:30 PM50 °FSunny.9 mph28%30.24 "Hg10 mi
12:00 PM50 °FSunny.13 mph30%30.24 "Hg10 mi
11:30 AM48 °FSunny.14 mph34%30.24 "Hg10 mi
11:00 AM48 °FSunny.15 mph29%30.27 "Hg10 mi
10:30 AM46 °FSunny.17 mph37%30.27 "Hg10 mi
10:00 AM46 °FSunny.18 mph40%30.27 "Hg10 mi
9:30 AM45 °FSunny.17 mph37%30.27 "Hg10 mi
9:00 AM45 °FSunny.18 mph37%30.27 "Hg10 mi
8:30 AM43 °FSunny.15 mph42%30.24 "Hg10 mi
8:00 AM43 °FSunny.13 mph42%30.24 "Hg10 mi
7:30 AM41 °FSunny.13 mph45%30.21 "Hg10 mi
7:00 AM39 °FSunny.9 mph48%30.21 "Hg10 mi
6:30 AM39 °FSunny.15 mph45%30.18 "Hg10 mi
6:00 AM39 °FClear.14 mph45%30.15 "Hg10 mi
5:30 AM39 °FClear.17 mph45%30.12 "Hg10 mi
5:00 AM39 °FClear.16 mph48%30.12 "Hg10 mi
4:30 AM39 °FClear.14 mph45%30.12 "Hg10 mi
4:00 AM41 °FClear.14 mph42%30.12 "Hg10 mi
Weather by CustomWeather, © 2015

See weather overviewHow to use our weather pages